WetterOnline ( http://www.wetteronline.de )

Wetter aktuell Malsch

Aktuelles Wetter: Rheinstetten (116m)

6-stündlich | Neueste Meldungen
Ortszeit Temperatur Wetter
So, 16.12. 19:00 1.7° C bedeckt
So, 16.12. 13:00 0.9° C bedeckt
So, 16.12. 7:00 -1.7° C leichter Schneefall
So, 16.12. 1:00 -1.5° C bedeckt
Sa, 15.12. 19:00 -0.9° C fast wolkenlos
Sa, 15.12. 13:00 0.8° C bedeckt
Sa, 15.12. 7:00 -0.1° C bedeckt
Sa, 15.12. 1:00 0.2° C bedeckt
Ortszeit Temperatur Wetter
So, 16.12. 22:30 1.7° C bedeckt
So, 16.12. 22:20 1.7° C bedeckt
So, 16.12. 22:10 1.5° C bedeckt
So, 16.12. 22:00 1.9° C bedeckt
So, 16.12. 21:50 1.9° C bedeckt
So, 16.12. 21:40 1.5° C bedeckt
So, 16.12. 21:30 1.9° C bedeckt
So, 16.12. 21:00 1.6° C bedeckt
So, 16.12. 20:30 1.2° C Sprühregen
So, 16.12. 20:00 1.5° C bewölkt
So, 16.12. 19:30 1.6° C bewölkt
So, 16.12. 19:00 1.7° C bedeckt
Ortszeit Relative Feuchte Sichtweite
So, 16.12. 19:00 100% 2.2 km
So, 16.12. 13:00 96% 3.2 km
So, 16.12. 7:00 97% 1.7 km
So, 16.12. 1:00 79% 19 km
Sa, 15.12. 19:00 69% 23 km
Sa, 15.12. 13:00 64% 26 km
Sa, 15.12. 7:00 66% 29 km
Sa, 15.12. 1:00 65% 28 km
Ortszeit Relative Feuchte Sichtweite
So, 16.12. 22:30 100% 3.1 km
So, 16.12. 22:20 100% -
So, 16.12. 22:10 100% -
So, 16.12. 22:00 99% 1.8 km
So, 16.12. 21:50 99% -
So, 16.12. 21:40 100% -
So, 16.12. 21:30 99% 2.4 km
So, 16.12. 21:00 100% 1.7 km
So, 16.12. 20:30 99% 0.6 km
So, 16.12. 20:00 100% 1.4 km
So, 16.12. 19:30 100% 1.1 km
So, 16.12. 19:00 100% 2.2 km
Ortszeit Niederschlagsmenge Niederschlagsart
So, 16.12. 19:00 1 l/m2 in 12 Std. Sprühregen
So, 16.12. 13:00 0.9 l/m2 in 6 Std. Schnee, Regen
So, 16.12. 7:00 3 l/m2 in 12 Std. Schnee
So, 16.12. 1:00 0.0 l/m2 in 6 Std. -
Sa, 15.12. 19:00 0.0 l/m2 in 12 Std. -
Sa, 15.12. 13:00 0.0 l/m2 in 6 Std. -
Sa, 15.12. 7:00 0.0 l/m2 in 12 Std. -
Sa, 15.12. 1:00 0.0 l/m2 in 6 Std. -
Ortszeit Niederschlagsmenge Niederschlagsart
So, 16.12. 22:30 0.0 l/m2 in 1 Std. -
So, 16.12. 22:20 keine Meldung -
So, 16.12. 22:10 keine Meldung -
So, 16.12. 22:00 0.1 l/m2 in 1 Std. Regen
So, 16.12. 21:50 keine Meldung -
So, 16.12. 21:40 keine Meldung -
So, 16.12. 21:30 0.1 l/m2 in 1 Std. Schnee
So, 16.12. 21:00 0.1 l/m2 in 1 Std. Regen
So, 16.12. 20:30 0.1 l/m2 in 1 Std. -
So, 16.12. 20:00 0.0 l/m2 in 1 Std. -
So, 16.12. 19:30 0.0 l/m2 in 1 Std. -
So, 16.12. 19:00 0.0 l/m2 in 1 Std. Sprühregen
Ortszeit Stärke Spitze Richtung
km/h Bft. km/h Grad Sektor
So, 16.12. 19:00 4 1 11 140° SO
So, 16.12. 13:00 7 2 14 260° W
So, 16.12. 7:00 4 1 14 360° N
So, 16.12. 1:00 4 1 14 120° SO
Sa, 15.12. 19:00 9 2 26 110° O
Sa, 15.12. 13:00 11 2 22 90° O
Sa, 15.12. 7:00 9 2 20 130° SO
Sa, 15.12. 1:00 11 2 22 130° SO
Ortszeit Stärke Spitze Richtung
km/h Bft. km/h Grad Sektor
So, 16.12. 22:30 2 1 6 130° SO
So, 16.12. 22:20 2 1 - 130° SO
So, 16.12. 22:10 4 1 - 130° SO
So, 16.12. 22:00 4 1 7 140° SO
So, 16.12. 21:50 4 1 - 140° SO
So, 16.12. 21:40 4 1 - 150° SO
So, 16.12. 21:30 4 1 7 180° S
So, 16.12. 21:00 7 2 7 130° SO
So, 16.12. 20:30 4 1 7 130° SO
So, 16.12. 20:00 0 0 7 - -
So, 16.12. 19:30 4 1 7 300° NW
So, 16.12. 19:00 4 1 7 140° SO
Ortszeit Untergrenze Bedeckung Gattung
total tief tief mittel hoch
So, 16.12. 19:00 - 8/8 - - - -
So, 16.12. 13:00 150 m 8/8 8/8 - - -
So, 16.12. 7:00 150 m 8/8 8/8 - - -
So, 16.12. 1:00 3300 m 8/8 8/8 - - -
Sa, 15.12. 19:00 2100 m 1/8 1/8 - - -
Sa, 15.12. 13:00 900 m 8/8 8/8 - - -
Sa, 15.12. 7:00 930 m 8/8 8/8 - - -
Sa, 15.12. 1:00 870 m 8/8 8/8 - - -
Ortszeit Bedeckungsgrad in Achtel und Wolkenuntergrenze
So, 16.12. 22:30 9 9 9
So, 16.12. 22:20 9 9 9
So, 16.12. 22:10 9 9 9
So, 16.12. 22:00 9 9 9
So, 16.12. 21:50 9 9 9
So, 16.12. 21:40 9 9 9
So, 16.12. 21:30 9 9 9
So, 16.12. 21:00 9 9 9
So, 16.12. 20:30 3(540m) 4(660m) 5(1500m)
So, 16.12. 20:00 6(630m) 7(1170m)
So, 16.12. 19:30 7(600m) 7(1170m) 7(1080m)
So, 16.12. 19:00 9 9 9
Ortszeit Luftdruck NN (hPa) Tendenz (hPa in 3 Std.)
So, 16.12. 19:00 1016 + 0,9
So, 16.12. 13:00 1014 - 0,4
So, 16.12. 7:00 1014 - 1,7
So, 16.12. 1:00 1018 - 2,8
Sa, 15.12. 19:00 1023 - 1,5
Sa, 15.12. 13:00 1025 - 1,4
Sa, 15.12. 7:00 1026 - 0,1
Sa, 15.12. 1:00 1025 + 0,1
Ortszeit Luftdruck NN (hPa) Tendenz (hPa in 3 Std.)
So, 16.12. 22:30 1016 + 0,5
So, 16.12. 22:20 1016 keine Meldung
So, 16.12. 22:10 1016 keine Meldung
So, 16.12. 22:00 1016 + 0,7
So, 16.12. 21:50 1016 keine Meldung
So, 16.12. 21:40 1016 keine Meldung
So, 16.12. 21:30 1016 + 0,9
So, 16.12. 21:00 1016 + 1,1
So, 16.12. 20:30 1016 + 1,1
So, 16.12. 20:00 1016 + 1,0
So, 16.12. 19:30 1016 + 0,7
So, 16.12. 19:00 1016 + 0,9
Ortszeit Schneehöhe (cm)
So, 16.12. 19:00 0
So, 16.12. 13:00 2
So, 16.12. 7:00 3
So, 16.12. 1:00 0
Sa, 15.12. 19:00 0
Sa, 15.12. 13:00 0
Sa, 15.12. 7:00 0
Sa, 15.12. 1:00 0
Ortszeit Schneehöhe (cm)
So, 16.12. 22:30 0
So, 16.12. 22:20 0
So, 16.12. 22:10 0
So, 16.12. 22:00 0
So, 16.12. 21:50 0
So, 16.12. 21:40 0
So, 16.12. 21:30 0
So, 16.12. 21:00 0
So, 16.12. 20:30 0
So, 16.12. 20:00 0
So, 16.12. 19:30 0
So, 16.12. 19:00 0
Link zu dieser Seite / Seite empfehlen

Das Wetter in ...